GW0518 Weather Reports


Display with metric or nautical units.
time (UTC)temp
F
wind
direction
speed
MPH
gust
MPH
rain 1hr
in
rain 24hr
in
rain mn
in
humidity
%
barometer
mb
20260901104938 68 288 0.0 0.0 0.00 0.37 0.05 99 1014.8
20260901104439 68 288 0.0 0.0 0.00 0.37 0.05 99 1015.0
20260901103940 68 288 0.0 0.0 0.00 0.37 0.05 99 1014.8
20260901103438 68 288 0.0 0.0 0.00 0.37 0.05 99 1014.7
20260901103200 68 288 0.0 0.0 0.00 0.37 0.05 99 1014.7
20260901102437 68 288 0.0 0.0 0.00 0.37 0.05 99 1014.8
20260901101935 68 288 0.0 0.0 0.00 0.37 0.05 99 1014.5
20260901101435 68 288 0.0 3.0 0.00 0.37 0.05 99 1014.5
20260901101156 68 288 1.0 3.0 0.00 0.37 0.05 99 1014.4
20260901100437 68 288 1.0 3.0 0.01 0.37 0.05 99 1014.4
20260901095934 68 288 1.0 2.0 0.02 0.35 0.05 99 1014.6
20260901095702 68 288 1.0 2.0 0.02 0.35 0.05 99 1014.7
20260901094933 68 288 1.0 3.0 0.02 0.35 0.05 99 1014.8
20260901094433 68 288 1.0 3.0 0.02 0.35 0.05 99 1014.8
20260901093930 68 288 1.0 3.0 0.02 0.35 0.05 99 1015.1
20260901093656 68 288 2.0 4.0 0.02 0.35 0.05 99 1014.8
20260901092932 68 288 2.0 4.0 0.02 0.35 0.05 99 1014.9
20260901092430 68 288 2.0 4.0 0.02 0.35 0.05 99 1015.1
20260901092148 68 288 2.0 5.0 0.02 0.35 0.05 99 1015.1
20260901091431 68 288 2.0 5.0 0.02 0.35 0.05 99 1014.7
20260901090931 68 288 1.0 3.0 0.02 0.35 0.05 99 1014.9
20260901090432 68 288 1.0 5.0 0.01 0.35 0.04 99 1015.0
20260901085930 68 288 1.0 5.0 0.00 0.35 0.03 99 1014.8
20260901085431 68 288 1.0 3.0 0.00 0.35 0.03 99 1014.7
20260901084931 68 288 1.0 3.0 0.00 0.35 0.03 99 1014.5
20260901084431 68 288 1.0 3.0 0.00 0.35 0.03 99 1014.7
20260901083930 68 288 1.0 4.0 0.00 0.35 0.03 99 1014.7
20260901083431 68 288 1.0 4.0 0.00 0.35 0.03 99 1014.8
20260901082931 68 288 1.0 3.0 0.00 0.35 0.03 99 1014.7
20260901082430 68 288 2.0 7.0 0.00 0.35 0.03 99 1014.8
20260901081931 68 288 2.0 7.0 0.00 0.35 0.03 99 1014.8
20260901081431 68 288 2.0 5.0 0.00 0.35 0.03 99 1014.8
20260901080933 68 288 1.0 4.0 0.00 0.35 0.03 99 1014.9
20260901080432 68 288 2.0 9.0 0.00 0.35 0.03 99 1015.1
20260901075929 68 288 2.0 9.0 0.00 0.35 0.03 99 1015.2
20260901075428 69 288 2.0 4.0 0.00 0.35 0.03 99 1015.2
20260901074929 69 288 2.0 7.0 0.01 0.35 0.03 99 1015.2
20260901074431 69 288 2.0 8.0 0.02 0.35 0.03 99 1015.3
20260901073929 69 288 2.0 8.0 0.02 0.35 0.03 99 1015.5
20260901073429 69 288 1.0 7.0 0.02 0.35 0.03 99 1015.5
20260901072929 69 288 2.0 8.0 0.03 0.35 0.03 99 1015.6
20260901072430 69 288 2.0 8.0 0.03 0.35 0.03 99 1015.7
20260901071929 69 288 2.0 5.0 0.03 0.35 0.03 99 1015.7
20260901071429 69 288 1.0 4.0 0.03 0.35 0.03 99 1015.8
20260901070930 69 288 0.0 3.0 0.03 0.35 0.03 99 1015.8
20260901070430 69 288 1.0 3.0 0.03 0.35 0.03 99 1015.9
20260901065932 69 288 1.0 3.0 0.03 0.32 0.03 99 1015.8
20260901065429 69 288 1.0 3.0 0.03 0.32 0.03 99 1015.9
20260901064929 69 288 1.0 4.0 0.02 0.32 0.02 99 1015.9
20260901064656 69 288 1.0 4.0 0.01 0.32 0.01 99 1016.0
20260901063929 69 288 1.0 3.0 0.01 0.32 0.01 99 1016.0
20260901063430 69 288 1.0 4.0 0.01 0.32 0.01 99 1016.1
20260901062929 69 288 1.0 4.0 0.00 0.32 0.00 99 1016.1
20260901062429 69 288 0.0 3.0 0.00 0.32 0.00 99 1016.1
20260901062155 69 288 0.0 3.0 0.00 0.32 0.00 99 1016.1
20260901061429 69 288 0.0 3.0 0.00 0.32 0.00 99 1016.1
20260901061149 69 288 0.0 3.0 0.00 0.32 0.00 99 1016.1
20260901055929 69 288 1.0 3.0 0.00 0.32 0.00 99 1016.3
20260901055429 69 288 1.0 4.0 0.00 0.32 0.00 99 1016.1
20260901055149 69 288 1.0 4.0 0.00 0.32 0.00 99 1016.1
20260901054430 69 288 1.0 3.0 0.00 0.32 0.00 99 1016.1
20260901053929 69 288 1.0 3.0 0.00 0.32 0.00 99 1016.1
20260901053428 69 288 1.0 3.0 0.00 0.32 0.00 99 1016.4
20260901052929 69 288 1.0 3.0 0.00 0.32 0.00 99 1016.5
20260901052429 69 288 1.0 3.0 0.00 0.32 0.00 99 1016.6
20260901051929 69 288 1.0 3.0 0.00 0.32 0.00 99 1016.7
20260901051428 69 288 1.0 3.0 0.00 0.32 0.00 99 1016.8
20260901050647 69 288 1.0 4.0 0.00 0.32 0.00 99 1016.7
20260901045926 69 288 1.0 3.0 0.00 0.32 0.00 99 1016.7
20260901045645 69 288 1.0 3.0 0.00 0.32 0.00 99 1016.7
20260901044914 69 288 0.0 3.0 0.00 0.32 0.00 99 1016.6
20260901044407 69 288 0.0 2.0 0.00 0.32 0.00 99 1016.6
20260901043902 69 288 1.0 2.0 0.00 0.32 0.00 99 1016.7
20260901043401 69 288 1.0 3.0 0.00 0.32 0.00 99 1016.5
20260901043125 69 288 1.0 3.0 0.00 0.32 0.00 99 1016.7
20260901042403 69 288 1.0 2.0 0.00 0.32 0.00 99 1016.6
20260901041901 69 288 1.0 2.0 0.00 0.32 0.00 99 1016.6
20260901041401 69 288 0.0 2.0 0.00 0.32 0.00 99 1016.8
20260901040901 69 288 0.0 1.0 0.00 0.32 0.00 99 1016.9
20260901040504 69 288 0.0 2.0 0.00 0.32 0.32 99 1016.8
20260901040453 69 288 0.0 1.0 0.00 0.00 0.00 99 1016.8
20260901035401 68 288 0.0 2.0 0.00 0.32 0.32 99 1016.8
20260901034904 68 288 1.0 2.0 0.00 0.32 0.32 99 1016.9
20260901034401 68 288 1.0 2.0 0.00 0.32 0.32 99 1016.8
20260901033901 68 288 1.0 2.0 0.00 0.32 0.32 99 1016.8
20260901033401 68 288 0.0 2.0 0.00 0.32 0.32 99 1017.1
20260901032904 68 288 0.0 2.0 0.00 0.32 0.32 99 1016.9
20260901032403 68 288 1.0 2.0 0.00 0.32 0.32 99 1017.0
20260901031901 68 288 1.0 3.0 0.00 0.32 0.32 99 1016.8
20260901031401 68 288 1.0 3.0 0.00 0.32 0.32 99 1017.0
20260901030905 68 288 0.0 3.0 0.00 0.32 0.32 99 1016.9
20260901030401 68 288 1.0 2.0 0.00 0.32 0.32 99 1016.9
20260901025901 68 288 1.0 3.0 0.00 0.32 0.32 98 1016.9
20260901025401 68 288 1.0 3.0 0.00 0.32 0.32 98 1017.1
20260901025134 68 288 1.0 4.0 0.00 0.32 0.32 98 1017.1
20260901024404 68 288 1.0 4.0 0.00 0.32 0.32 98 1017.1
20260901023901 68 288 1.0 4.0 0.00 0.32 0.32 98 1017.2
20260901023402 68 288 2.0 4.0 0.00 0.32 0.32 98 1017.2
20260901022902 68 288 1.0 4.0 0.00 0.32 0.32 98 1017.0
20260901022401 68 288 1.0 4.0 0.00 0.32 0.32 98 1017.2
20260901021900 68 288 1.0 4.0 0.00 0.32 0.32 98 1017.1
20260901021625 68 288 0.0 3.0 0.00 0.32 0.32 98 1017.0
20260901020900 68 288 1.0 3.0 0.00 0.32 0.32 99 1016.9
20260901020403 68 288 0.0 2.0 0.00 0.32 0.32 99 1017.1
20260901015901 68 288 1.0 3.0 0.00 0.32 0.32 98 1017.1
20260901015401 68 288 1.0 3.0 0.00 0.32 0.32 98 1017.1
20260901014903 68 288 1.0 3.0 0.00 0.32 0.32 98 1017.3
20260901014401 68 288 0.0 4.0 0.00 0.32 0.32 98 1017.4
20260901013400 68 288 1.0 3.0 0.00 0.32 0.32 98 1017.4
20260901012401 68 288 1.0 3.0 0.00 0.32 0.32 98 1017.5
20260901011901 68 288 1.0 3.0 0.00 0.32 0.32 98 1017.5
20260901011403 68 288 1.0 3.0 0.00 0.32 0.32 98 1017.5
20260901010900 68 288 1.0 2.0 0.01 0.32 0.32 98 1017.5
20260901010402 68 288 0.0 2.0 0.01 0.32 0.32 98 1017.4
20260901005901 68 288 0.0 2.0 0.01 0.31 0.32 98 1017.4
20260901005402 68 288 0.0 2.0 0.01 0.31 0.32 98 1017.3
20260901004901 68 288 0.0 2.0 0.01 0.31 0.32 98 1017.3
20260901004403 68 288 1.0 4.0 0.01 0.31 0.32 98 1017.4
20260901003901 68 288 1.0 4.0 0.01 0.31 0.32 98 1017.2
20260901002901 68 288 0.0 3.0 0.01 0.31 0.32 98 1017.3
20260901002401 68 288 0.0 3.0 0.01 0.31 0.32 98 1017.2
20260901001901 68 288 0.0 3.0 0.01 0.31 0.32 98 1017.1
20260901001619 68 288 1.0 3.0 0.01 0.31 0.32 98 1017.1
20260901000903 68 288 1.0 5.0 0.00 0.31 0.31 98 1017.1
20260901000401 68 288 1.0 5.0 0.00 0.31 0.31 98 1017.2
20260831235901 68 288 0.0 3.0 0.00 0.31 0.31 98 1017.2
20260831235402 68 288 0.0 3.0 0.00 0.31 0.31 98 1017.1
20260831234903 68 288 1.0 3.0 0.00 0.31 0.31 98 1016.9
20260831234401 68 288 1.0 4.0 0.00 0.31 0.31 98 1016.9
20260831233901 68 288 1.0 4.0 0.00 0.31 0.31 98 1016.9
20260831233400 68 288 1.0 4.0 0.01 0.31 0.31 98 1017.1
20260831232903 68 288 1.0 3.0 0.01 0.31 0.31 98 1017.1
20260831232401 68 288 1.0 3.0 0.01 0.31 0.31 98 1017.1
20260831231902 68 288 0.0 3.0 0.01 0.31 0.31 98 1017.1
20260831231400 68 288 0.0 2.0 0.01 0.31 0.31 98 1017.3
20260831230900 68 288 0.0 3.0 0.01 0.31 0.31 98 1017.3
20260831230400 68 288 0.0 3.0 0.01 0.31 0.31 98 1017.3
20260831230123 68 288 1.0 3.0 0.01 0.30 0.31 98 1017.4
20260831225401 68 288 1.0 3.0 0.01 0.30 0.31 97 1017.4
20260831224902 68 288 1.0 5.0 0.01 0.30 0.31 97 1017.3
20260831224401 68 288 1.0 5.0 0.01 0.30 0.31 97 1017.4
20260831223900 68 288 1.0 4.0 0.02 0.30 0.31 97 1017.4
20260831223401 68 288 2.0 4.0 0.01 0.30 0.30 97 1017.5
20260831223123 68 288 2.0 8.0 0.02 0.30 0.30 97 1017.5
20260831222621 68 288 2.0 9.0 0.02 0.30 0.30 97 1017.5
20260831221902 68 288 2.0 9.0 0.03 0.30 0.30 97 1017.5
20260831221619 68 288 1.0 5.0 0.05 0.30 0.30 97 1017.5
20260831220403 68 288 1.0 2.0 0.09 0.30 0.30 97 1017.6
20260831220134 68 288 1.0 4.0 0.10 0.20 0.30 97 1017.7
20260831200401 69 288 3.0 8.0 0.02 0.21 0.20 96 1018.4
20260831200124 69 288 3.0 9.0 0.02 0.19 0.20 96 1018.3
20260831195629 69 288 2.0 9.0 0.02 0.20 0.19 96 1018.4
20260831194902 69 288 2.0 7.0 0.01 0.21 0.19 96 1018.4
20260831194401 68 288 2.0 5.0 0.01 0.21 0.19 96 1018.4
20260831194126 68 288 2.0 5.0 0.00 0.21 0.18 95 1018.3
20260831160941 66 288 2.0 4.0 0.07 0.17 0.14 96 1020.3
20260831160441 66 288 2.0 3.0 0.07 0.17 0.14 96 1020.3
20260831155942 66 288 2.0 5.0 0.08 0.17 0.14 95 1020.4
20260831155441 66 288 1.0 5.0 0.09 0.17 0.13 95 1020.4
20260831155159 66 288 1.0 4.0 0.09 0.16 0.13 95 1020.4
20260831154441 66 288 2.0 5.0 0.09 0.16 0.13 95 1020.6
20260831153940 66 288 1.0 7.0 0.10 0.16 0.12 95 1020.6
20260831153706 66 288 2.0 7.0 0.10 0.15 0.12 95 1020.3
20260831153204 66 288 2.0 7.0 0.10 0.15 0.11 95 1020.2
20260831152440 66 288 2.0 9.0 0.09 0.13 0.10 95 1020.0
20260831151941 66 288 2.0 9.0 0.08 0.12 0.09 95 1020.0
20260831151441 66 288 3.0 7.0 0.08 0.11 0.08 95 1020.0
20260831151208 66 288 3.0 5.0 0.07 0.10 0.07 95 1020.0
20260831150440 66 288 1.0 5.0 0.07 0.10 0.06 95 1020.1
20260831145942 66 288 0.0 3.0 0.06 0.09 0.06 95 1020.3
20260831145703 67 288 0.0 3.0 0.05 0.08 0.05 95 1020.3
20260831144941 67 288 0.0 1.0 0.04 0.07 0.04 95 1020.4
20260831144440 67 288 0.0 3.0 0.04 0.07 0.03 95 1020.3
20260831143941 67 288 0.0 3.0 0.03 0.06 0.03 95 1020.3
20260831143440 67 288 1.0 4.0 0.02 0.05 0.02 95 1020.4
20260831142940 66 288 1.0 4.0 0.02 0.05 0.02 95 1020.3
20260831142441 66 288 2.0 10.0 0.01 0.04 0.01 95 1020.1
20260831141940 66 288 2.0 10.0 0.01 0.04 0.01 95 1020.0
20260831141440 66 288 2.0 5.0 0.00 0.03 0.00 96 1019.9
20260831140942 66 288 2.0 7.0 0.00 0.03 0.00 96 1019.8
20260831140440 66 288 2.0 8.0 0.00 0.03 0.00 96 1019.8
20260831135940 66 288 2.0 8.0 0.00 0.03 0.00 96 1019.9
20260831135441 66 288 1.0 5.0 0.00 0.03 0.00 97 1020.1
20260831134941 66 288 1.0 4.0 0.00 0.03 0.00 97 1020.1
20260831134441 66 288 2.0 4.0 0.00 0.03 0.00 97 1020.3
20260831133940 66 288 1.0 3.0 0.00 0.03 0.00 97 1020.4
20260831133440 66 288 0.0 3.0 0.00 0.03 0.00 98 1020.2
20260831132940 65 288 1.0 5.0 0.00 0.03 0.00 98 1020.0
20260831132441 65 288 2.0 5.0 0.00 0.03 0.00 98 1020.0
20260831131941 65 288 2.0 5.0 0.00 0.03 0.00 98 1020.1
20260831131440 65 288 3.0 5.0 0.00 0.03 0.00 98 1020.0
20260831130940 65 288 2.0 8.0 0.00 0.03 0.00 98 1020.0
20260831130441 65 288 2.0 8.0 0.00 0.03 0.00 98 1020.1
20260831125940 65 288 2.0 7.0 0.00 0.03 0.00 98 1020.3
20260831125700 64 288 2.0 7.0 0.00 0.03 0.00 99 1020.1
20260831125202 64 288 1.0 3.0 0.00 0.03 0.00 98 1020.1
20260831124440 64 288 1.0 3.0 0.00 0.03 0.00 98 1020.3
20260831123940 63 288 1.0 3.0 0.00 0.03 0.00 98 1020.6
20260831123441 63 288 1.0 3.0 0.00 0.03 0.00 98 1020.4
20260831122940 63 288 1.0 3.0 0.00 0.03 0.00 98 1020.4
20260831121940 62 288 0.0 0.0 0.00 0.03 0.00 98 1020.4
20260831121705 62 288 0.0 1.0 0.00 0.03 0.00 98 1020.4
20260831120941 62 288 0.0 2.0 0.00 0.03 0.00 98 1020.4
20260831120657 62 288 0.0 2.0 0.00 0.03 0.00 98 1020.4
20260831115940 62 288 0.0 2.0 0.00 0.03 0.00 98 1020.6
20260831115441 62 288 0.0 0.0 0.00 0.03 0.00 98 1020.7
20260831114940 62 288 0.0 2.0 0.00 0.03 0.00 98 1020.6
20260831114441 62 288 0.0 2.0 0.00 0.03 0.00 98 1020.6
20260831113940 61 288 0.0 1.0 0.00 0.03 0.00 98 1020.7
20260831113440 61 288 0.0 1.0 0.00 0.03 0.00 98 1020.7
20260831112941 61 288 0.0 0.0 0.00 0.03 0.00 98 1020.7
20260831112440 61 288 0.0 1.0 0.00 0.03 0.00 98 1020.6
20260831111941 61 288 0.0 1.0 0.00 0.03 0.00 98 1020.4
20260831111441 61 288 0.0 1.0 0.00 0.03 0.00 98 1020.6
20260831110940 61 288 0.0 2.0 0.00 0.03 0.00 98 1020.6
20260831110704 61 288 1.0 3.0 0.00 0.03 0.00 98 1020.4
20260831105936 61 288 1.0 3.0 0.00 0.03 0.00 98 1020.3
20260831105438 61 288 1.0 4.0 0.00 0.03 0.00 98 1020.6